Showing default

PUNCH-WFI01, 63179

Orbit data source: Space-Track

PUNCH-WFI01, 63179 is an American payload satellite in SSO that was launched on Wed, 12 Mar 2025 UTC via an FALCON 9 launch vehicle from the Air Force Western Test Range (AFWTR). Payload-class satellites include a variety of spacecraft equipped with specific instruments for various scientific and technological missions. These include communications satellites like Starlink; space stations such as the ISS; scientific satellites like the Hubble; Earth observation satellites from companies like Planet Labs, Umbra, and HawkEye 360; GPS; miniature CubeSats for education and research; and military/defense satellites.

Loading next visibility...
Identifier
63179, 2025-047B
Orbit
SSO
Country
Flag of USUS
Related business
Manufacturer
SWRI
Mission
Operational Civil Astronomy
Bus & Motor
PUNCH, Unknown motor
Mass
64 kg wet, 64 kg dry
Launch date (UTC)
2025-03-12 (2 years ago)
Launch vehicle
FALCON 9
Launch site
Air Force Western Test Range (AFWTR)
Object type
Payload
Rocket body
Debris
Shape & HBR
Box + 1 Pan, 1.9 m
Radar Cross Section
0.625 m², Medium (>0.1 m² and < 1m²)

Expand to show TLE details & history
Last TLE update: 16 hours ago

TLE from 16 hours ago
0 PUNCH-WFI01
1 63179U 25047B   26257.50242335  .00000360  00000-0  61765-4 0  9998
2 63179  97.9606  81.2457 0007667 248.3961 111.6431 14.74427337 81223
Epoch: 2026-09-14T12:03Z
TLE epoch observation values (Epoch: 2026-09-14T12:03:29.377Z)
Latitude
-0.00003°
Longitude
-93.1085°
Altitude
651.972 km
Speed
7.531 km/s
True Right ascension
05h 24m 58s
True Declination
0° 00' 00"
Sunlit
Object was in daylight at epoch
Visualization orbit readout
Latitude
Unknown
Longitude
Unknown
Altitude
Unknown
Speed
Unknown
Apparent Right ascension
Unknown
Apparent Declination
Unknown
Sunlit
N/A
Visualization observer readout
Local Sidereal Time
21:09:34
Azimuth
Unknown
Elevation
Unknown
Doppler factor
Unknown
Orbital elements
Apogee altitude
649.405 km
Perigee altitude
638.637 km
Semi-major axis
7,022.158 km
Eccentricity
0.00077
Inclination
97.9606°
RAAN
81.2457°
Arg. of periapsis
248.3961°
True anomaly
111.72473°
Mean anomaly
111.6431°
Eccentric anomaly
111.68392°
Mean motion
3.68839 °/min
Orbital period
97.6 mins
BSTAR
0.000061765
Loading maneuver chart data...
Computing Atmospheric mass density...
Loading historical data...
Loading historical data...
Loading historical data...
Loading historical data...
Loading historical data...
Loading historical data...
Loading historical data...
Other satellites on launch #47 in the year 2025 (2025-03-12 UTC)

Documentation

Showing up to 5 results
|